{"data":{"norad_id":68584,"epoch":"2026-09-19T22:46:17.099328Z","epoch_age_seconds":114099,"freshness":"FRESH","line1":"1 68584U 26072M   26262.94880902  .00001881  00000+0  27571-3 0  9998","line2":"2 68584  51.9044 124.1524 0001058  94.8762 265.2321 14.79931204 25328","mean_motion":14.79931204,"eccentricity":0.0001058,"inclination_deg":51.9044,"raan_deg":124.1524,"arg_perigee_deg":94.8762,"mean_anomaly_deg":265.2321,"bstar":0.00027571,"rev_number":2532,"period_min":97.301820254072,"perigee_km":628.79988634367,"apogee_km":630.28271107168,"semimajor_km":7007.6782987077,"source":"CELESTRAK","updated_at":"2026-09-20T09:00:24.321307Z"}}